Hourly Weather Roundup
Issued by NWS Central Illinois

Home | Current Version | Previous Version | Text Only | Print | Product List | Glossary On
Versions: 1 2 3 4 5 6 7 8 9 10 11 12 13 14 15 16 17 18 19 20 21 22 23 24 25 26 27 28 29 30 31 32 33 34 35 36 37 38 39 40 41 42 43 44 45 46 47 48 49 50
000
NZUS43 KILX 091210
HWRILX

AREA WEATHER ROUNDUP
NATIONAL WEATHER SERVICE, LINCOLN IL
600 AM CST TUE FEB 09 2016


CITY           SKY/WX    TMP DP  RH WIND       PRES   REMARKS
BLOOMINGTON    LGT SNOW  16  12  84 NW14      29.82R FOG     WCI   2
6HR MIN TEMP:  16; 6HR MAX TEMP:  18; 6HR PCP: TRACE;

CHAMPAIGN      FLURRIES  19  13  77 NW14      29.81R WCI   6
6HR MIN TEMP:  19; 6HR MAX TEMP:  20; 6HR PCP: TRACE;

DANVILLE       LGT SNOW  18  15  85 W10       29.76R WCI   7
6HR MIN TEMP:  18; 6HR MAX TEMP:  20;

DECATUR        LGT SNOW  18  11  74 NW15      29.84R WCI   4
6HR MIN TEMP:  18; 6HR MAX TEMP:  19; 6HR PCP: TRACE;

EFFINGHAM      FLURRIES  19  16  85 W10       29.87R WCI   8
FLORA          FLURRIES  22  15  74 NW12G21   29.88R WCI  10
6HR MIN TEMP:  22; 6HR MAX TEMP:  22;

GALESBURG      FLURRIES  14   9  81 NW15G21   29.89R WCI  -2
JACKSONVILLE   LGT SNOW  19  14  80 NW14      29.90R WCI   5
6HR MIN TEMP:  19; 6HR MAX TEMP:  21;

LACON          LGT SNOW  16  10  80 NW15      29.85R WCI   1
6HR MIN TEMP:  15; 6HR MAX TEMP:  19;

LAWRENCEVILLE  LGT SNOW  20  15  81 NW12      29.86R WCI   8
6HR MIN TEMP:  20; 6HR MAX TEMP:  21; 6HR PCP: TRACE;

LITCHFIELD     CLOUDY    17  11  77 NW16      29.88R WCI   2
$$


CITY           SKY/WX    TMP DP  RH WIND       PRES   REMARKS
LINCOLN        FLURRIES  18  12  79 NW13G20   29.86R WCI   4
6HR MIN TEMP:  18; 6HR MAX TEMP:  19;

MACOMB         MOCLDY    15  11  85 NW20G25   29.93R WCI  -2
MATTOON        FLURRIES  18  12  77 NW16      29.82R WCI   3
6HR MIN TEMP:  17; 6HR MAX TEMP:  18; 6HR PCP: TRACE;

MT CARMEL AP   LGT SNOW  21  16  79 NW9       29.86R WCI  11
OLNEY-NOBLE AP FLURRIES  21  14  73 W13       29.87R WCI   9
PARIS          FLURRIES  19  15  85 W15       29.82R WCI   5
6HR MIN TEMP:  19; 6HR MAX TEMP:  20;

PEORIA         LGT SNOW  15   9  76 NW9G21    29.87R WCI   3
6HR MIN TEMP:  15; 6HR MAX TEMP:  18; 6HR PCP: TRACE;

PONTIAC        LGT SNOW  19  15  86 NW14      29.82R WCI   5
RANTOUL        CLOUDY    20  15  79 NW15      29.80R WCI   7
6HR MIN TEMP:  20; 6HR MAX TEMP:  22;

ROBINSON       LGT SNOW  18  15  85 NW12      29.85S WCI   6
6HR MIN TEMP:  18; 6HR MAX TEMP:  19;

SPRINGFIELD    CLOUDY    17  11  77 NW17G23   29.88R WCI   1
6HR MIN TEMP:  17; 6HR MAX TEMP:  20; 6HR PCP: TRACE;

TAYLORVILLE    FLURRIES  18  12  79 NW14      29.87R WCI   4
$$

...REGIONAL REPORTS...


CITY           SKY/WX    TMP DP  RH WIND       PRES   REMARKS
CHICAGO O`HARE FLURRIES  17  11  77 NW17      29.76R WCI   1
KANKAKEE       MIX PCPN  20  15  81 NW9       29.79R WCI   9
MOLINE         MOCLDY    14   5  67 NW14G23   29.91R WCI  -1
MOUNT STERLING FLURRIES  14   9  79 NW14      29.92R WCI  -1
MOUNT VERNON   CLOUDY    19   9  63 W7        29.89R WCI  10
PITTSFIELD     FLURRIES  17  10  75 NW16      29.94R WCI   1
QUINCY         LGT SNOW  15   9  76 NW21      29.94R WCI  -2
ROCKFORD       LGT SNOW  14   8  77 N15       29.84R BLWGSNOWWCI  -1
$$


CITY           SKY/WX    TMP DP  RH WIND       PRES   REMARKS
BURLINGTON     CLOUDY    15   9  76 NW15G25   29.93R WCI   0
CEDAR RAPIDS   LGT SNOW  12   7  80 N20       29.94R WCI  -6
DES MOINES     FLURRIES  12   3  67 N20G26    30.06R WCI  -6
KIRKSVILLE     FLURRIES  14   4  64 NW15G26   30.01R WCI  -1
OTTUMWA        CLOUDY    13   7  77 NW23G36   30.00R WCI  -6
ST LOUIS       FLURRIES  21  14  74 NW9       29.92R WCI  11
$$


CITY           SKY/WX    TMP DP  RH WIND       PRES   REMARKS
TERRE HAUTE    LGT SNOW  19  14  81 NW10      29.81R WCI   7
EVANSVILLE     CLOUDY    23  13  65 NW12G17   29.87R WCI  12
INDIANAPOLIS   LGT SNOW  20  16  84 W17       29.75R FOG     WCI   5
LAFAYETTE      FLURRIES  19  15  84 W10       29.76R WCI   7
MADISON        FLURRIES  10   3  73 NW12G20   29.83R WCI  -5
MILWAUKEE      FLURRIES  15   8  73 NW15G22   29.77R WCI   0
$$





USA.gov is the U.S. government's official web portal to all federal, state and local government web resources and services.